MDT,Max TemperatureF,Mean TemperatureF,Min TemperatureF,Max Dew PointF,MeanDew PointF,Min DewpointF,Max Humidity, Mean Humidity, Min Humidity, Max Sea Level PressureIn, Mean Sea Level PressureIn, Min Sea Level PressureIn, Max VisibilityMiles, Mean VisibilityMiles, Min VisibilityMiles, Max Wind SpeedMPH, Mean Wind SpeedMPH, Max Gust SpeedMPH,PrecipitationIn, CloudCover, Events, WindDirDegrees
2013-9-1,86,68,50,50,48,45,86,57,27,30.11,30.03,29.95,10,10,10,14,5,17,0.00,0,,37
2013-9-2,98,77,56,52,46,35,77,45,12,29.94,29.87,29.79,10,10,10,16,8,20,0.00,0,,102
2013-9-3,92,83,73,59,54,50,53,39,25,29.95,29.88,29.81,10,10,9,9,4,12,T,3,Rain,116
2013-9-4,96,82,67,60,57,52,66,46,26,30.02,29.97,29.93,10,10,10,16,7,20,0.00,0,,122
2013-9-5,99,84,68,64,60,54,73,48,22,29.99,29.91,29.82,10,10,10,14,6,17,T,0,Rain-Thunderstorm,131
2013-9-6,96,81,66,64,60,54,87,56,24,29.96,29.90,29.82,10,10,7,24,7,30,T,1,Thunderstorm,349
2013-9-7,86,75,64,65,61,57,87,65,43,30.03,29.95,29.88,10,10,10,23,9,26,0.07,2,Rain-Thunderstorm,50
2013-9-8,76,68,59,64,62,55,93,77,60,30.06,29.92,29.77,10,7,1,29,7,36,0.61,6,Rain-Thunderstorm,17
2013-9-9,76,67,58,61,54,49,100,69,38,29.94,29.86,29.79,10,10,5,22,10,28,T,3,Rain,270
2013-9-10,83,69,54,56,51,42,93,59,24,30.06,30.03,29.95,10,8,0,12,5,15,0.01,0,Fog,201
2013-9-11,85,70,54,52,49,46,83,56,28,30.25,30.15,30.07,10,10,10,15,7,20,0.00,1,,72
2013-9-12,84,69,54,50,47,43,66,48,29,30.29,30.19,30.06,10,10,10,15,9,20,0.00,0,,70
2013-9-13,87,75,62,63,55,48,66,52,37,30.04,29.86,29.74,10,10,10,24,12,31,0.03,1,Rain,155
2013-9-14,78,70,61,64,61,52,93,75,56,30.07,29.87,29.73,10,9,1,22,7,26,0.35,5,Rain-Thunderstorm,348
2013-9-15,75,66,57,55,52,48,87,66,44,30.22,30.15,30.06,10,10,10,16,10,22,0.00,5,,87
2013-9-16,83,70,57,56,52,49,77,57,37,30.04,29.87,29.72,10,10,10,22,12,28,0.00,0,,151
2013-9-17,87,73,58,64,55,48,100,65,30,29.73,29.66,29.57,10,10,3,39,7,48,0.30,3,Rain-Thunderstorm,178
2013-9-18,76,64,52,59,52,44,97,68,38,29.87,29.67,29.54,10,10,10,28,11,37,0.01,2,Rain,258
2013-9-19,61,52,42,45,40,38,89,68,46,30.14,30.09,29.88,10,10,9,26,13,33,0.01,6,Rain,306
2013-9-20,74,57,39,43,40,37,93,60,27,30.14,30.00,29.82,10,10,10,13,7,23,0.00,0,,144
2013-9-21,85,64,43,44,40,37,83,51,19,29.79,29.66,29.51,10,10,10,13,6,16,0.00,0,,134
2013-9-22,78,63,48,51,45,40,77,55,32,29.52,29.48,29.45,10,10,10,16,6,17,0.00,0,,340
2013-9-23,75,61,46,48,37,26,67,42,17,29.89,29.71,29.53,10,10,10,25,10,32,T,3,,302
2013-9-24,78,60,42,40,35,30,76,49,21,29.97,29.80,29.52,10,10,10,16,8,22,0.00,0,,147
2013-9-25,60,55,49,49,46,40,100,74,47,29.72,29.66,29.55,10,10,5,23,9,28,0.09,5,Rain,317
2013-9-26,53,49,45,48,43,37,93,78,63,29.99,29.79,29.66,10,10,10,25,12,30,0.02,8,Rain,300
2013-9-27,53,45,36,40,37,33,92,71,50,30.02,29.95,29.89,10,10,10,16,7,21,0.00,5,,259
2013-9-28,69,52,35,39,37,34,100,65,30,29.91,29.85,29.77,10,10,10,28,12,35,0.00,3,,225
2013-9-29,80,63,46,41,37,33,71,46,21,29.75,29.63,29.53,10,10,10,30,12,36,0.00,2,,224
2013-9-30,72,57,42,52,40,32,86,66,46,29.78,29.62,29.46,10,9,4,41,12,51,0.09,2,Rain,204